| time (UTC) | temp C | wind direction | speed KPH | gust KPH | rain 1hr cm | rain 24hr cm | rain mn cm | humidity % | barometer mb |
| 20260508040040 | 4 | 283 | 0.0 | 4.8 | 0.00 | 0.00 | 0.00 | 81 | 1013.6 |
| 20260508034537 | 4 | 0 | 0.0 | 3.2 | 0.00 | 0.00 | 0.00 | 81 | 1013.6 |
| 20260508033038 | 4 | 0 | 0.0 | 0.0 | 0.00 | 0.00 | 0.00 | 79 | 1013.5 |
| 20260508031537 | 4 | 0 | 0.0 | 0.0 | 0.00 | 0.00 | 0.00 | 78 | 1013.6 |
| 20260508030044 | 5 | 0 | 0.0 | 0.0 | 0.00 | 0.00 | 0.00 | 76 | 1013.6 |
| 20260508024540 | 5 | 0 | 0.0 | 1.6 | 0.00 | 0.00 | 0.00 | 75 | 1013.8 |
| 20260508023037 | 5 | 0 | 0.0 | 0.0 | 0.00 | 0.00 | 0.00 | 72 | 1013.7 |
| 20260508021541 | 6 | 0 | 0.0 | 0.0 | 0.00 | 0.00 | 0.00 | 69 | 1013.6 |
| 20260508020045 | 6 | 0 | 0.0 | 3.2 | 0.00 | 0.00 | 0.00 | 67 | 1013.6 |
| 20260508014539 | 7 | 0 | 0.0 | 0.0 | 0.00 | 0.00 | 0.00 | 66 | 1013.6 |
| 20260508013046 | 7 | 0 | 0.0 | 0.0 | 0.00 | 0.00 | 0.00 | 63 | 1013.4 |
| 20260508011544 | 8 | 283 | 1.6 | 3.2 | 0.00 | 0.00 | 0.00 | 58 | 1013.4 |
| 20260508010038 | 8 | 283 | 1.6 | 6.4 | 0.00 | 0.00 | 0.00 | 57 | 1013.4 |
| 20260508004537 | 8 | 283 | 3.2 | 11.3 | 0.00 | 0.00 | 0.00 | 56 | 1013.2 |
| 20260508003037 | 9 | 278 | 6.4 | 12.9 | 0.00 | 0.00 | 0.00 | 54 | 1013.2 |
| 20260508001601 | 9 | 294 | 9.7 | 19.3 | 0.00 | 0.00 | 0.00 | 53 | 1013.0 |
| 20260508000046 | 10 | 294 | 14.5 | 24.1 | 0.00 | 0.00 | 0.00 | 51 | 1012.8 |
| 20260507234541 | 10 | 312 | 16.1 | 30.6 | 0.00 | 0.00 | 0.00 | 50 | 1012.7 |
| 20260507233038 | 10 | 258 | 19.3 | 30.6 | 0.00 | 0.00 | 0.00 | 49 | 1012.7 |
| 20260507231538 | 11 | 277 | 9.7 | 25.7 | 0.00 | 0.00 | 0.00 | 51 | 1012.7 |
| 20260507230036 | 11 | 296 | 19.3 | 35.4 | 0.00 | 0.00 | 0.00 | 50 | 1012.8 |
| 20260507224543 | 11 | 276 | 14.5 | 33.8 | 0.00 | 0.00 | 0.00 | 52 | 1012.8 |
| 20260507223043 | 11 | 309 | 14.5 | 48.3 | 0.00 | 0.00 | 0.00 | 50 | 1012.8 |
| 20260507221538 | 11 | 319 | 20.9 | 38.6 | 0.00 | 0.00 | 0.00 | 51 | 1012.8 |
| 20260507220043 | 11 | 219 | 17.7 | 37.0 | 0.00 | 0.00 | 0.00 | 52 | 1012.7 |
| 20260507214539 | 11 | 296 | 17.7 | 37.0 | 0.00 | 0.00 | 0.00 | 54 | 1012.6 |
| 20260507213037 | 10 | 271 | 16.1 | 30.6 | 0.00 | 0.00 | 0.00 | 57 | 1012.4 |
| 20260507211537 | 10 | 288 | 12.9 | 29.0 | 0.00 | 0.00 | 0.00 | 58 | 1012.3 |
| 20260507210042 | 10 | 289 | 17.7 | 33.8 | 0.00 | 0.00 | 0.00 | 56 | 1012.4 |
| 20260507204544 | 11 | 290 | 14.5 | 32.2 | 0.00 | 0.00 | 0.00 | 56 | 1012.1 |
| 20260507203100 | 11 | 311 | 17.7 | 27.4 | 0.00 | 0.00 | 0.00 | 55 | 1012.1 |
| 20260507201542 | 11 | 290 | 12.9 | 30.6 | 0.00 | 0.00 | 0.00 | 52 | 1012.2 |
| 20260507200036 | 12 | 315 | 14.5 | 33.8 | 0.00 | 0.00 | 0.00 | 50 | 1012.2 |
| 20260507194537 | 12 | 294 | 14.5 | 30.6 | 0.00 | 0.00 | 0.00 | 51 | 1012.4 |
| 20260507193044 | 12 | 285 | 16.1 | 32.2 | 0.00 | 0.00 | 0.00 | 48 | 1012.3 |
| 20260507191545 | 12 | 310 | 16.1 | 30.6 | 0.00 | 0.00 | 0.00 | 46 | 1012.4 |
| 20260507190037 | 12 | 312 | 19.3 | 33.8 | 0.00 | 0.00 | 0.00 | 48 | 1012.4 |
| 20260507184537 | 12 | 302 | 11.3 | 25.7 | 0.00 | 0.00 | 0.00 | 52 | 1012.5 |
| 20260507183036 | 12 | 288 | 19.3 | 32.2 | 0.00 | 0.00 | 0.00 | 49 | 1012.4 |
| 20260507181537 | 12 | 311 | 17.7 | 33.8 | 0.00 | 0.00 | 0.00 | 51 | 1012.4 |
| 20260507180044 | 12 | 306 | 19.3 | 33.8 | 0.00 | 0.00 | 0.00 | 51 | 1012.3 |
| 20260507174545 | 12 | 304 | 19.3 | 30.6 | 0.00 | 0.00 | 0.00 | 51 | 1012.4 |
| 20260507173037 | 13 | 292 | 16.1 | 25.7 | 0.00 | 0.00 | 0.00 | 52 | 1012.4 |
| 20260507171538 | 12 | 254 | 12.9 | 22.5 | 0.00 | 0.00 | 0.00 | 50 | 1012.6 |
| 20260507170044 | 12 | 298 | 12.9 | 22.5 | 0.00 | 0.00 | 0.00 | 54 | 1012.5 |
| 20260507164537 | 12 | 313 | 11.3 | 24.1 | 0.00 | 0.00 | 0.00 | 50 | 1012.7 |
| 20260507163042 | 12 | 288 | 12.9 | 27.4 | 0.00 | 0.00 | 0.00 | 52 | 1012.7 |
| 20260507161539 | 12 | 295 | 12.9 | 20.9 | 0.00 | 0.00 | 0.00 | 55 | 1012.7 |
| 20260507160037 | 12 | 300 | 11.3 | 20.9 | 0.00 | 0.00 | 0.00 | 53 | 1012.8 |
| 20260507154537 | 12 | 242 | 6.4 | 20.9 | 0.00 | 0.00 | 0.00 | 51 | 1012.9 |
| 20260507153043 | 11 | 308 | 4.8 | 24.1 | 0.00 | 0.00 | 0.00 | 55 | 1013.1 |
| 20260507151543 | 12 | 294 | 4.8 | 17.7 | 0.00 | 0.00 | 0.00 | 56 | 1013.0 |
| 20260507150041 | 11 | 279 | 6.4 | 16.1 | 0.00 | 0.00 | 0.00 | 55 | 1013.1 |
| 20260507144540 | 11 | 298 | 1.6 | 14.5 | 0.00 | 0.00 | 0.00 | 51 | 1013.0 |
| 20260507143037 | 11 | 300 | 9.7 | 20.9 | 0.00 | 0.00 | 0.00 | 55 | 1013.0 |
| 20260507141537 | 11 | 324 | 6.4 | 16.1 | 0.00 | 0.00 | 0.00 | 54 | 1013.1 |
| 20260507140042 | 11 | 273 | 8.0 | 24.1 | 0.00 | 0.00 | 0.00 | 57 | 1013.3 |
| 20260507134547 | 11 | 290 | 9.7 | 16.1 | 0.00 | 0.00 | 0.00 | 59 | 1013.4 |
| 20260507133039 | 10 | 280 | 4.8 | 14.5 | 0.00 | 0.00 | 0.00 | 62 | 1013.5 |
| 20260507131552 | 10 | 262 | 9.7 | 17.7 | 0.00 | 0.00 | 0.00 | 66 | 1013.6 |
| 20260507130037 | 9 | 267 | 4.8 | 16.1 | 0.00 | 0.00 | 0.00 | 73 | 1013.6 |
| 20260507124537 | 8 | 299 | 6.4 | 14.5 | 0.00 | 0.00 | 0.00 | 77 | 1013.7 |
| 20260507123036 | 7 | 265 | 1.6 | 14.5 | 0.00 | 0.00 | 0.00 | 84 | 1013.6 |
| 20260507121538 | 6 | 336 | 1.6 | 4.8 | 0.00 | 0.00 | 0.00 | 89 | 1013.6 |
| 20260507120044 | 5 | 0 | 0.0 | 3.2 | 0.00 | 0.00 | 0.00 | 90 | 1013.7 |
| 20260507114538 | 5 | 0 | 0.0 | 4.8 | 0.00 | 0.03 | 0.00 | 91 | 1013.7 |
| 20260507113037 | 5 | 0 | 0.0 | 1.6 | 0.00 | 0.03 | 0.00 | 91 | 1013.6 |
| 20260507111537 | 4 | 0 | 0.0 | 0.0 | 0.00 | 0.03 | 0.00 | 91 | 1013.3 |
| 20260507110037 | 4 | 0 | 0.0 | 0.0 | 0.00 | 0.03 | 0.00 | 91 | 1013.3 |
| 20260507104544 | 4 | 0 | 0.0 | 0.0 | 0.00 | 0.03 | 0.00 | 91 | 1013.2 |
| 20260507103044 | 4 | 0 | 0.0 | 0.0 | 0.00 | 0.03 | 0.00 | 91 | 1013.0 |
| 20260507101538 | 3 | 0 | 0.0 | 1.6 | 0.00 | 0.03 | 0.00 | 91 | 1013.0 |
| 20260507100040 | 3 | 0 | 0.0 | 1.6 | 0.00 | 0.03 | 0.00 | 91 | 1013.1 |
| 20260507094539 | 3 | 0 | 0.0 | 4.8 | 0.00 | 0.13 | 0.00 | 91 | 1013.0 |
| 20260507093037 | 3 | 0 | 0.0 | 3.2 | 0.00 | 0.13 | 0.00 | 91 | 1013.0 |
| 20260507091549 | 3 | 0 | 0.0 | 1.6 | 0.00 | 0.13 | 0.00 | 91 | 1013.1 |
| 20260507090042 | 3 | 0 | 0.0 | 0.0 | 0.00 | 0.13 | 0.00 | 91 | 1013.1 |
| 20260507084541 | 3 | 0 | 0.0 | 0.0 | 0.00 | 0.25 | 0.00 | 91 | 1013.1 |
| 20260507083040 | 2 | 0 | 0.0 | 3.2 | 0.00 | 0.25 | 0.00 | 91 | 1013.2 |
| 20260507081544 | 2 | 0 | 0.0 | 0.0 | 0.00 | 0.25 | 0.00 | 90 | 1013.3 |
| 20260507080036 | 2 | 0 | 0.0 | 0.0 | 0.00 | 0.25 | 0.00 | 89 | 1013.3 |
| 20260507074552 | 2 | 0 | 0.0 | 0.0 | 0.00 | 0.38 | 0.00 | 89 | 1013.3 |
| 20260507073042 | 2 | 336 | 0.0 | 0.0 | 0.00 | 0.38 | 0.00 | 88 | 1013.4 |
| 20260507071541 | 3 | 0 | 0.0 | 0.0 | 0.00 | 0.38 | 0.00 | 87 | 1013.5 |
| 20260507070040 | 3 | 0 | 0.0 | 0.0 | 0.00 | 0.38 | 0.00 | 87 | 1013.7 |
| 20260507064541 | 3 | 0 | 0.0 | 0.0 | 0.00 | 0.48 | 0.00 | 86 | 1013.7 |
| 20260507063037 | 3 | 0 | 0.0 | 0.0 | 0.00 | 0.48 | 0.00 | 85 | 1013.9 |
| 20260507061537 | 3 | 0 | 0.0 | 0.0 | 0.00 | 0.48 | 0.00 | 85 | 1014.0 |
| 20260507060038 | 4 | 0 | 0.0 | 1.6 | 0.00 | 0.48 | 0.00 | 85 | 1014.1 |
| 20260507054547 | 4 | 0 | 0.0 | 3.2 | 0.00 | 0.58 | 0.00 | 85 | 1014.1 |
| 20260507053049 | 5 | 0 | 0.0 | 0.0 | 0.00 | 0.58 | 0.00 | 86 | 1014.3 |
| 20260507051539 | 5 | 0 | 0.0 | 3.2 | 0.00 | 0.58 | 0.00 | 86 | 1014.5 |
| 20260507050038 | 5 | 0 | 0.0 | 1.6 | 0.00 | 0.58 | 0.00 | 87 | 1014.5 |
| 20260507044547 | 5 | 336 | 0.0 | 3.2 | 0.00 | 0.74 | 0.00 | 87 | 1014.5 |
| 20260507043045 | 5 | 0 | 0.0 | 1.6 | 0.00 | 0.74 | 0.00 | 87 | 1014.5 |
| 20260507041542 | 5 | 0 | 0.0 | 0.0 | 0.00 | 0.74 | 0.00 | 87 | 1014.8 |